sat.trackr.live / text

‹ back to catalog

STARLINK-5131

NORAD 53996 · 2022-125AJ

PAYLOAD ACTIVE UNKNOWN

§ Identity

Operator
Country
US
Launch date
2022-10-05
Launch site
AFWTR
Launch vehicle
Mass (kg)
RCS (m²)

Purposes: comms

External: N2YO · Heavens-Above · Gunter

§ Orbital elements

Epoch: 2026-09-20T03:54:31.053024Z

Period
95.44 min
Inclination
53.1611°
Eccentricity
0.0001168
Mean motion
15.08832187 rev/d
Perigee alt
539.0 km
Apogee alt
540.6 km
Semi-major
6,917.9 km
B*
4.1311e-5
RAAN
60.2741°
Arg perigee
96.2169°
Mean anomaly
263.8955°
Rev number
21,882

§ Raw data

STARLINK-51311 53996U 22125AJ  26263.16285941  .00000369  00000+0  41311-4 0  99902 53996  53.1611  60.2741 0001168  96.2169 263.8955 15.08832187218822

JSON: /api/v1/satellites/53996 · /tle

For live sub-satellite position, see the globe view (requires WebGL).

§ Visibility from observer

Set your observer location to see the next 7 days of passes ≥ 10°. The values pass through the URL so the page stays shareable.

No JS? Fill the form by hand. The geolocation button needs JavaScript.